Retour au catalogue

STARLINK-30965

ActifCommunicationsVLEO
NORAD 58477·PAYLOAD·🇺🇸 United States

Lancé Dec 3, 2023 depuis Cape Canaveral Space Force Station

Loading…

Prochains Passages (prochaines 24 heures)

TLE

FraisSource: CelesTrak SupGP

Époque: Sep 14, 2026, 20:30 UTC

1 58477C 23186E   26257.85465278  .00050175  00000+0  18175-2 0  2576
2 58477  43.0006  63.8928 0001429 267.8613 262.8659 15.27551316    16

Suivez STARLINK-30965 en temps réel avec AllMySat

Download on the App Store